Timestamp,Temp,Chill,HIndex,Humid,Dewpt,Wind,HiWind,WindDir,Rain,RainRate,Barom,Solar,ET,UV,InsideTemp,InsideHumid
2016-03-16 00:00:00,41.5,37.5445963682968,41.5,91,39.0721190300907,6,12,0,0,0,30.265,0,0,0,54.3,56
2016-03-16 00:05:00,41.5,38.2342430826966,41.5,91,39.0721190300907,5,12,45,0,0,30.262,0,0,0,54.5,56
2016-03-16 00:10:00,41.5,39.0513772274681,41.5,91,39.0721190300907,4,10,315,0,0,30.261,0,0,0,54.9,56
2016-03-16 00:15:00,41.4,37.4255033715449,41.4,91,38.9732260666887,6,10,315,0,0,30.265,0,0,0,55.1,55
2016-03-16 00:20:00,41.3,38.820344965537,41.3,91,38.8743328522452,4,10,292.5,0,0,30.262,0,0,0,55.1,55
2016-03-16 00:25:00,41.3,37.9993313194465,41.3,91,38.8743328522452,5,10,337.5,0,0,30.262,0,0,0,55.1,55
2016-03-16 00:30:00,41.3,36.704576034674,41.3,91,38.8743328522452,7,13,315,0,0,30.264,0,0,0,54.8,55
2016-03-16 00:35:00,41.2,37.1873173780412,41.2,91,38.775439386759,6,11,0,0,0,30.258,0,0,0,54.3,56
2016-03-16 00:40:00,41.2,36.5840611266498,41.2,91,38.775439386759,7,14,0,0,0,30.261,0,0,0,53.9,56
2016-03-16 00:45:00,41.1,37.7644195561965,41.1,91,38.6765456702293,5,14,315,0,0,30.259,0,0,0,53.7,56
2016-03-16 00:50:00,41.1,37.7644195561965,41.1,91,38.6765456702293,5,12,45,0,0,30.258,0,0,0,53.7,56
2016-03-16 00:55:00,41,38.4737965726404,41,91,38.5776517026551,4,15,45,0,0,30.259,0,0,0,53.9,56
2016-03-16 01:00:00,41,36.9491313845374,41,91,38.5776517026551,6,11,22.5,0,0,30.266,0,0,0,53.9,56
2016-03-16 01:05:00,40.9,36.8300383877855,40.9,91,38.4787574840355,6,13,337.5,0,0,30.263,0,0,0,53.7,57
2016-03-16 01:10:00,40.9,36.2225164025771,40.9,91,38.4787574840355,7,12,0,0,0,30.264,0,0,0,53.4,57
2016-03-16 01:15:00,40.8,36.7109453910337,40.8,91,38.3798630143694,6,12,315,0,0,30.264,0,0,0,53.4,57
2016-03-16 01:20:00,40.8,37.4120519113214,40.8,91,38.3798630143694,5,12,315,0,0,30.263,0,0,0,53.6,57
2016-03-16 01:25:00,40.7,36.5918523942818,40.7,91,38.2809682936559,6,12,22.5,0,0,30.262,0,0,0,53.7,56
2016-03-16 01:30:00,40.7,36.5918523942818,40.7,91,38.2809682936559,6,12,0,0,0,30.262,0,0,0,53.7,56
2016-03-16 01:35:00,40.7,37.2945960296964,40.7,91,38.2809682936559,5,12,315,0,0,30.26,0,0,0,53.7,56
2016-03-16 01:40:00,40.7,35.9814865865286,40.7,91,38.2809682936559,7,12,0,0,0,30.261,0,0,0,53.7,56
2016-03-16 01:45:00,40.7,35.9814865865286,40.7,91,38.2809682936559,7,13,0,0,0,30.254,0,0,0,53.3,57
2016-03-16 01:50:00,40.7,36.5918523942818,40.7,91,38.2809682936559,6,13,337.5,0,0,30.258,0,0,0,53,57
2016-03-16 01:55:00,40.7,38.1272481797438,40.7,91,38.2809682936559,4,12,315,0,0,30.26,0,0,0,53,57
2016-03-16 02:00:00,40.7,37.2945960296964,40.7,91,38.2809682936559,5,16,45,0,0,30.258,0,0,0,53.3,57
2016-03-16 02:05:00,40.7,35.9814865865286,40.7,91,38.2809682936559,7,16,0,0,0,30.256,0,0,0,53.3,57
2016-03-16 02:10:00,40.7,36.5918523942818,40.7,91,38.2809682936559,6,11,22.5,0,0,30.258,0,0,0,53.4,57
2016-03-16 02:15:00,40.8,36.7109453910337,40.8,91,38.3798630143694,6,13,292.5,0,0,30.255,0,0,0,53.4,57
2016-03-16 02:20:00,40.8,36.1020014945528,40.8,91,38.3798630143694,7,18,22.5,0,0,30.253,0,0,0,53.1,57
2016-03-16 02:25:00,40.9,36.2225164025771,40.9,91,38.4787574840355,7,14,0,0,0,30.252,0,0,0,53.1,58
2016-03-16 02:30:00,40.9,36.2225164025771,40.9,91,38.4787574840355,7,16,0,0,0,30.25,0,0,0,52.8,58
2016-03-16 02:35:00,40.9,35.6840082481933,40.9,91,38.4787574840355,8,15,292.5,0,0,30.251,0,0,0,52.6,59
2016-03-16 02:40:00,40.9,35.1993658856534,40.9,91,38.4787574840355,9,18,337.5,0,0,30.247,0,0,0,52.4,59
2016-03-16 02:45:00,40.8,35.0764562836283,40.8,91,38.3798630143694,9,19,337.5,0,0,30.25,0,0,0,52.3,59
2016-03-16 02:50:00,40.7,35.4404576647203,40.7,91,38.2809682936559,8,18,22.5,0,0,30.253,0,0,0,52.3,59
2016-03-16 02:55:00,40.7,35.9814865865286,40.7,91,38.2809682936559,7,14,22.5,0,0,30.253,0,0,0,52.1,59
2016-03-16 03:00:00,40.7,35.9814865865286,40.7,92,38.5599204395314,7,18,45,0,0,30.251,0,0,0,52,60
2016-03-16 03:05:00,40.7,36.5918523942818,40.7,92,38.5599204395314,6,14,337.5,0,0,30.25,0,0,0,52.3,60
2016-03-16 03:10:00,40.7,35.9814865865286,40.7,92,38.5599204395314,7,15,337.5,0,0,30.255,0,0,0,52.7,59
2016-03-16 03:15:00,40.7,35.4404576647203,40.7,92,38.5599204395314,8,16,0,0,0,30.245,0,0,0,52.6,59
2016-03-16 03:20:00,40.7,36.5918523942818,40.7,92,38.5599204395314,6,16,337.5,0,0,30.248,0,0,0,52.6,59
2016-03-16 03:25:00,40.7,35.4404576647203,40.7,92,38.5599204395314,8,18,337.5,0,0,30.248,0,0,0,52.6,59
2016-03-16 03:30:00,40.6,35.8609716785043,40.6,92,38.4608983538443,7,16,0,0,0,30.247,0,0,0,52.4,59
2016-03-16 03:35:00,40.6,37.1771401480713,40.6,92,38.4608983538443,5,15,337.5,0,0,30.246,0,0,0,52.6,59
2016-03-16 03:40:00,40.6,35.8609716785043,40.6,92,38.4608983538443,7,20,337.5,0,0,30.246,0,0,0,52.8,58
2016-03-16 03:45:00,40.6,36.4727593975299,40.6,92,38.4608983538443,6,13,22.5,0,0,30.244,0,0,0,52.7,58
2016-03-16 03:50:00,40.5,35.1969070812473,40.5,92,38.3618760457724,8,18,0,0,0,30.251,0,0,0,52.8,57
2016-03-16 03:55:00,40.5,35.7404567704801,40.5,92,38.3618760457724,7,18,337.5,0,0,30.259,0,0,0,52.8,58
2016-03-16 04:00:00,40.5,34.7077274775531,40.5,91,38.0831780990831,9,18,22.5,0,0,30.253,0,0,0,52.6,57
2016-03-16 04:05:00,40.4,35.6199418624559,40.4,92,38.262853515315,7,13,337.5,0,0,30.252,0,0,0,52.4,58
2016-03-16 04:10:00,40.4,35.0751317895109,40.4,92,38.262853515315,8,15,0,0,0,30.25,0,0,0,52.4,58
2016-03-16 04:15:00,40.4,34.5848178755281,40.4,91,37.9842826252217,9,23,337.5,0,0,30.258,0,0,0,52.3,58
2016-03-16 04:20:00,40.4,36.2345734040262,40.4,92,38.262853515315,6,13,22.5,0,0,30.252,0,0,0,52.6,58
2016-03-16 04:25:00,40.4,34.5848178755281,40.4,91,37.9842826252217,9,16,0,0,0,30.252,0,0,0,52.3,58
2016-03-16 04:30:00,40.3,34.9533564977744,40.3,91,37.8853869003092,8,19,45,0,0,30.25,0,0,0,51.8,58
2016-03-16 04:35:00,40.3,35.4994269544316,40.3,91,37.8853869003092,7,13,22.5,0,0,30.251,0,0,0,51.7,59
2016-03-16 04:40:00,40.3,34.461908273503,40.3,91,37.8853869003092,9,18,22.5,0,0,30.256,0,0,0,51.7,58
2016-03-16 04:45:00,40.3,34.461908273503,40.3,91,37.8853869003092,9,20,337.5,0,0,30.25,0,0,0,51.5,58
2016-03-16 04:50:00,40.3,34.9533564977744,40.3,91,37.8853869003092,8,19,292.5,0,0,30.246,0,0,0,51.7,58
2016-03-16 04:55:00,40.3,34.461908273503,40.3,91,37.8853869003092,9,21,0,0,0,30.246,0,0,0,51.7,58
2016-03-16 05:00:00,40.3,34.9533564977744,40.3,91,37.8853869003092,8,20,315,0,0,30.248,0,0,0,51.5,58
2016-03-16 05:05:00,40.4,35.0751317895109,40.4,91,37.9842826252217,8,18,315,0,0,30.247,0,0,0,51.5,58
2016-03-16 05:10:00,40.4,34.5848178755281,40.4,91,37.9842826252217,9,19,337.5,0,0,30.249,0,0,0,51.7,58
2016-03-16 05:15:00,40.4,34.5848178755281,40.4,91,37.9842826252217,9,19,337.5,0,0,30.249,0,0,0,51.5,58
2016-03-16 05:20:00,40.5,34.7077274775531,40.5,91,38.0831780990831,9,22,337.5,0,0,30.247,0,0,0,51.4,58
2016-03-16 05:25:00,40.5,35.1969070812473,40.5,91,38.0831780990831,8,14,337.5,0,0,30.247,0,0,0,51.7,58
2016-03-16 05:30:00,40.6,34.8306370795782,40.6,91,38.1820733218941,9,23,315,0,0,30.247,0,0,0,51.7,58
2016-03-16 05:35:00,40.6,35.3186823729838,40.6,91,38.1820733218941,8,19,337.5,0,0,30.253,0,0,0,51.7,58
2016-03-16 05:40:00,40.7,35.4404576647203,40.7,91,38.2809682936559,8,15,22.5,0,0,30.254,0,0,0,51.8,58
2016-03-16 05:45:00,40.7,38.1272481797438,40.7,91,38.2809682936559,4,15,0,0,0,30.255,0,0,0,52.1,58
2016-03-16 05:50:00,40.8,36.7109453910337,40.8,91,38.3798630143694,6,15,45,0,0,30.259,0,0,0,52.4,57
2016-03-16 05:55:00,40.8,36.1020014945528,40.8,90,38.0980641313065,7,14,315,0,0,30.258,0,0,0,52.4,57
2016-03-16 06:00:00,40.8,35.5622329564568,40.8,90,38.0980641313065,8,16,315,0,0,30.255,0,0,0,52.4,57
2016-03-16 06:05:00,40.8,35.0764562836283,40.8,90,38.0980641313065,9,16,337.5,0,0,30.253,0,0,0,52.4,57
2016-03-16 06:10:00,40.8,35.5622329564568,40.8,90,38.0980641313065,8,18,292.5,0,0,30.252,0,0,0,52.4,57
2016-03-16 06:15:00,40.8,35.5622329564568,40.8,90,38.0980641313065,8,15,45,0,0,30.259,0,0,0,51.8,58
2016-03-16 06:20:00,40.8,35.0764562836283,40.8,90,38.0980641313065,9,16,0,0,0,30.259,0,0,0,51.4,58
2016-03-16 06:25:00,40.9,36.8300383877855,40.9,90,38.1968302733814,6,16,0,0,0,30.263,0,0,0,51.1,59
2016-03-16 06:30:00,40.9,36.2225164025771,40.9,90,38.1968302733814,7,13,22.5,0,0,30.264,0,0,0,50.9,59
2016-03-16 06:35:00,40.9,37.5295077929464,40.9,90,38.1968302733814,5,11,45,0,0,30.266,0,0,0,51.1,59
2016-03-16 06:40:00,41,36.9491313845374,41,90,38.295596135542,6,13,22.5,0,0,30.271,1,0,0,51.2,59
2016-03-16 06:45:00,41,37.6469636745714,41,90,38.295596135542,5,13,22.5,0,0,30.269,5,0,0,51.1,60
2016-03-16 06:50:00,41,37.6469636745714,41,90,38.295596135542,5,11,315,0,0,30.269,6,0,0,51.1,60
2016-03-16 06:55:00,41,38.4737965726404,41,90,38.295596135542,4,10,22.5,0,0,30.269,7,0,0,51.1,60
2016-03-16 07:00:00,41.1,35.9275588316662,41.1,90,38.3943617177894,8,15,22.5,0,0,30.265,8,0,0,50.6,61
2016-03-16 07:05:00,41.1,35.9275588316662,41.1,90,38.3943617177894,8,16,0,0,0,30.269,12,0,0,50.9,61
2016-03-16 07:10:00,41.1,37.7644195561965,41.1,90,38.3943617177894,5,9,0,0,0,30.268,13,0,0,51.1,60
2016-03-16 07:15:00,41.1,38.5893127036059,41.1,90,38.3943617177894,4,10,0,0,0,30.267,15,0,0,51.5,60
2016-03-16 07:20:00,41.1,41.1,41.1,90,38.3943617177894,3,9,337.5,0,0,30.267,17,0,0,52.1,59
2016-03-16 07:25:00,41.2,37.8818754378215,41.2,90,38.493127020125,5,12,22.5,0,0,30.27,19,0,0,52.4,59
2016-03-16 07:30:00,41.2,37.8818754378215,41.2,90,38.493127020125,5,11,45,0,0,30.271,20,0,0,52.3,59
2016-03-16 07:35:00,41.2,37.8818754378215,41.2,90,38.493127020125,5,13,22.5,0,0,30.272,20,0,0,52.4,59
2016-03-16 07:40:00,41.2,37.1873173780412,41.2,90,38.493127020125,6,13,0,0,0,30.278,20,0,0,52.3,59
2016-03-16 07:45:00,41.2,37.8818754378215,41.2,90,38.493127020125,5,10,0,0,0,30.275,19,0,0,52.4,59
2016-03-16 07:50:00,41.2,38.7048288345715,41.2,90,38.493127020125,4,11,45,0,0,30.277,18,0,0,52.7,58
2016-03-16 07:55:00,41.3,38.820344965537,41.3,90,38.5918920425498,4,8,45,0,0,30.28,19,0,0,52.7,58
2016-03-16 08:00:00,41.3,38.820344965537,41.3,90,38.5918920425498,4,8,45,0,0,30.28,21,0.001,0,52.7,58
2016-03-16 08:05:00,41.4,38.1167872010716,41.4,90,38.6906567850651,5,12,0,0,0,30.283,26,0,0,52.8,58
2016-03-16 08:10:00,41.4,38.1167872010716,41.4,90,38.6906567850651,5,10,337.5,0,0,30.286,34,0,0,52.8,58
2016-03-16 08:15:00,41.4,37.4255033715449,41.4,90,38.6906567850651,6,11,22.5,0,0,30.285,35,0,0,53.3,57
2016-03-16 08:20:00,41.5,39.0513772274681,41.5,90,38.7894212476721,4,9,337.5,0,0,30.287,35,0,0,53.9,57
2016-03-16 08:25:00,41.5,37.5445963682968,41.5,90,38.7894212476721,6,11,45,0,0,30.287,39,0,0,54.5,56
2016-03-16 08:30:00,41.5,38.2342430826966,41.5,90,38.7894212476721,5,10,0,0,0,30.291,44,0,0,55.1,55
2016-03-16 08:35:00,41.6,39.1668933584336,41.6,90,38.8881854303719,4,10,22.5,0,0,30.286,48,0,0,55.7,55
2016-03-16 08:40:00,41.6,37.0661207587468,41.6,90,38.8881854303719,7,12,22.5,0,0,30.285,55,0,0.1,55.7,54
2016-03-16 08:45:00,41.7,38.4691548459466,41.7,90,38.9869493331658,5,8,22.5,0,0,30.284,62,0,0.5,56.1,53
2016-03-16 08:50:00,41.8,38.5866107275717,41.8,90,39.0857129560549,5,10,0,0,0,30.285,77,0,0.6,56.3,52
2016-03-16 08:55:00,41.9,37.4276654828195,41.9,90,39.1844762990404,7,14,22.5,0,0,30.287,97,0,0.7,56.3,52
2016-03-16 09:00:00,42,38.1400613520562,42,90,39.2832393621235,6,11,22.5,0,0,30.286,102,0.001,0.7,56,54
2016-03-16 09:05:00,42.1,38.259154348808,42.1,90,39.3820021453054,6,11,22.5,0,0,30.287,111,0,0.8,56.3,54
2016-03-16 09:10:00,42.2,39.0564342540718,42.2,90,39.4807646485873,5,10,22.5,0,0,30.284,121,0,0.8,57.1,53
2016-03-16 09:15:00,42.4,39.2913460173218,42.4,90,39.6782888154558,5,12,22.5,0,0,30.292,126,0,0.8,58.4,53
2016-03-16 09:20:00,42.5,38.150754930965,42.5,90,39.7770504790448,7,14,22.5,0,0,30.288,125,0,0.9,59.3,51
2016-03-16 09:25:00,42.6,38.2712698389892,42.6,89,39.588900392167,7,12,0,0,0,30.289,122,0,0.8,59.4,50
2016-03-16 09:30:00,42.7,40.4375707990546,42.7,89,39.6875314650128,4,9,45,0,0,30.296,131,0,0.9,60.3,49
2016-03-16 09:35:00,42.9,38.632814563062,42.9,89,39.8847926838145,7,12,45,0,0,30.291,141,0,1,61.1,49
2016-03-16 09:40:00,43.1,40.8996353229168,43.1,89,40.0820526667727,4,12,45,0,0,30.292,146,0,1,61.1,48
2016-03-16 09:45:00,43.3,40.3484489519471,43.3,88,39.9886226553079,5,10,67.5,0,0,30.295,148,0,1.1,62.2,48
2016-03-16 09:50:00,43.4,40.4659048335721,43.4,88,40.0871201212057,5,14,22.5,0,0,30.294,147,0,1.1,62.5,47
2016-03-16 09:55:00,43.5,39.9264563033343,43.5,88,40.1856172488699,6,11,22.5,0,0,30.296,149,0,1.1,63.2,47
2016-03-16 10:00:00,43.7,41.5927321087101,43.7,87,40.0884625005588,4,11,22.5,0,0,30.296,156,0.003,1.1,64.3,45
2016-03-16 10:05:00,43.7,40.8182724784472,43.7,87,40.0884625005588,5,11,45,0,0,30.295,165,0,1.1,64.1,44
2016-03-16 10:10:00,43.8,40.9357283600722,43.8,87,40.1868258161789,5,11,22.5,0,0,30.292,188,0,1.2,63.6,46
2016-03-16 10:15:00,44,44,44,86,40.0860037616537,1,5,45,0,0,30.294,209,0,1.3,65.1,45
2016-03-16 10:20:00,44.2,40.7601072805974,44.2,86,40.2824594917631,6,11,0,0,0,30.293,217,0,1.4,65.9,42
2016-03-16 10:25:00,44.3,40.8792002773493,44.3,85,40.0796653639326,6,14,22.5,0,0,30.296,241,0,1.5,66.1,41
2016-03-16 10:30:00,44.6,41.2364792676049,44.6,84,40.069366155901,6,10,22.5,0,0,30.293,278,0,1.7,65.9,42
2016-03-16 10:35:00,45.4,43.5565063351243,45.4,83,40.5440842457964,4,9,67.5,0,0,30.292,311,0,1.9,66.7,41
2016-03-16 10:40:00,46.1,46.1,46.1,80,40.2789919944102,3,11,90,0,0,30.288,298,0,1.9,68,40
2016-03-16 10:45:00,47.3,47.3,47.3,78,40.7932800803141,2,6,90,0,0,30.286,452,0,2.5,69.2,38
2016-03-16 10:50:00,47.8,45.6339636250733,47.8,74,39.9215070985589,5,12,0,0,0,30.286,528,0,2.8,69.6,36
2016-03-16 10:55:00,47.8,45.6339636250733,47.8,75,40.2667603327198,5,11,22.5,0,0,30.284,526,0,3,68.4,38
2016-03-16 11:00:00,48.2,46.1037871515735,48.2,73,39.9574085362313,5,11,0,0,0,30.285,537,0.006,3,68.2,37
2016-03-16 11:05:00,48,45.2856411571686,48,72,39.4108086648186,6,12,0,0,0,30.285,528,0,3.1,67.5,38
2016-03-16 11:10:00,48,44.7790748722984,48,71,39.0524908206868,7,13,45,0,0,30.285,536,0,3.1,66.1,38
2016-03-16 11:15:00,48.4,45.7620131441761,48.4,70,39.0730804587598,6,14,22.5,0,0,30.287,542,0,3.2,65.4,39
2016-03-16 11:20:00,48.8,47.4840547879528,48.8,69,39.0877560400888,4,13,90,0,0,30.283,546,0,3.2,65.6,40
2016-03-16 11:25:00,49.6,48.4081838356772,49.6,66,38.7140668015874,4,11,90,0,0,30.283,551,0,3.2,66.7,39
2016-03-16 11:30:00,50.3,50.3,50.3,65,38.9891890557695,4,10,90,0,0,30.281,554,0,3.2,67.9,37
2016-03-16 11:35:00,50.5,50.5,50.5,64,38.7824262120605,5,12,112.5,0,0,30.278,560,0,3.3,68.7,37
2016-03-16 11:40:00,50,50,50,65,38.7042022694555,4,11,0,0,0,30.277,582,0,3.1,68.9,35
2016-03-16 11:45:00,50.6,50.6,50.6,65,39.2741661262279,5,13,90,0,0,30.279,569,0,3.2,69.2,35
2016-03-16 11:50:00,50.1,50.1,50.1,66,39.1899148352642,5,12,45,0,0,30.275,661,0,3.2,68.7,36
2016-03-16 11:55:00,50.3,50.3,50.3,65,38.9891890557695,6,12,90,0,0,30.276,601,0,3.1,69,36
2016-03-16 12:00:00,50.7,50.7,50.7,65,39.3691563240542,5,14,22.5,0,0,30.277,640,0.011,3.4,69.2,34
2016-03-16 12:05:00,50.4,50.4,50.4,66,39.4754111258273,4,13,112.5,0,0,30.277,595,0,3.2,68.4,35
2016-03-16 12:10:00,50.9,50.9,50.9,65,39.5591334813275,5,11,112.5,0,0,30.271,276,0,2.7,68.9,36
2016-03-16 12:15:00,50.9,50.9,50.9,64,39.1616918262365,6,11,0,0,0,30.276,422,0,2.9,69.9,35
2016-03-16 12:20:00,50.5,50.5,50.5,65,39.1791748489173,7,15,112.5,0,0,30.275,292,0,2,71.1,34
2016-03-16 12:25:00,49.9,47.5484080954542,49.9,66,38.9995787542901,6,15,337.5,0,0,30.274,221,0,2.2,70.9,34
2016-03-16 12:30:00,49.9,48.7547322285738,49.9,67,39.3847688532004,4,9,90,0,0,30.276,267,0,2.1,71.8,34
2016-03-16 12:35:00,49.8,49.8,49.8,67,39.2894305915454,3,10,45,0,0,30.274,238,0,2,71.9,33
2016-03-16 12:40:00,50,50,50,67,39.480106105808,3,8,90,0,0,30.273,254,0,1.9,72.3,33
2016-03-16 12:45:00,50.6,50.6,50.6,66,39.6657367658045,4,9,90,0,0,30.272,254,0,2.5,72.1,33
2016-03-16 12:50:00,50.3,50.3,50.3,66,39.3802467397364,7,16,112.5,0,0,30.271,278,0,1.9,72.1,31
2016-03-16 12:55:00,50,50,50,67,39.480106105808,4,15,0,0,0,30.269,152,0,1.9,71.9,33
2016-03-16 13:00:00,50.1,50.1,50.1,67,39.5754423493843,6,13,90,0,0,30.267,662,0.008,2.9,72.3,33
2016-03-16 13:05:00,51.8,51.8,51.8,65,40.4139772594418,5,13,0,0,0,30.265,660,0,2.7,72.8,33
2016-03-16 13:10:00,52.3,52.3,52.3,62,39.6724242444232,5,12,67.5,0,0,30.263,207,0,2.1,73,31
2016-03-16 13:15:00,51.2,51.2,51.2,64,39.446129326999,6,15,22.5,0,0,30.268,247,0,1.7,72.1,32
2016-03-16 13:20:00,50.3,50.3,50.3,64,38.5927867132644,8,14,22.5,0,0,30.263,216,0,1.7,70.7,31
2016-03-16 13:25:00,50,50,50,65,38.7042022694555,5,12,90,0,0,30.264,140,0,2.2,70.6,34
2016-03-16 13:30:00,50.2,50.2,50.2,63,38.0962346585819,6,16,90,0,0,30.266,175,0,1.8,71.6,33
2016-03-16 13:35:00,50.6,50.6,50.6,63,38.474812096934,4,11,90,0,0,30.258,482,0,2.5,72.4,33
2016-03-16 13:40:00,51.3,51.3,51.3,61,38.3127016971927,7,16,90,0,0,30.26,588,0,2.7,73.3,33
2016-03-16 13:45:00,51.7,51.7,51.7,60,38.267789124115,7,14,90,0,0,30.256,663,0,2.6,74.2,32
2016-03-16 13:50:00,51.9,51.9,51.9,60,38.4559619096667,7,13,90,0,0,30.256,668,0,2.8,74.5,31
2016-03-16 13:55:00,52,52,52,60,38.5500464097316,7,12,67.5,0,0,30.254,649,0,2.4,74.2,29
2016-03-16 14:00:00,51.4,51.4,51.4,60,37.9855204818516,6,19,22.5,0,0,30.26,171,0.009,1.9,72.4,32
2016-03-16 14:05:00,51.3,51.3,51.3,60,37.8914284106127,5,13,22.5,0,0,30.257,545,0,2.4,71.9,32
2016-03-16 14:10:00,52.7,52.7,52.7,60,39.2086025819492,4,9,112.5,0,0,30.253,635,0,2.5,72.6,32
2016-03-16 14:15:00,52.9,52.9,52.9,58,38.5292887017211,5,12,67.5,0,0,30.251,631,0,2.1,73,32
2016-03-16 14:20:00,51.5,51.5,51.5,58,37.2173867990733,6,15,22.5,0,0,30.255,147,0,1.6,73.1,30
2016-03-16 14:25:00,50.6,50.6,50.6,59,36.8065289488417,8,18,90,0,0,30.254,213,0,1.7,73.5,31
2016-03-16 14:30:00,50.5,50.5,50.5,60,37.1386464083262,8,18,90,0,0,30.253,490,0,1.8,74.2,30
2016-03-16 14:35:00,50.8,50.8,50.8,61,37.841308574905,9,15,112.5,0,0,30.248,544,0,2.2,74.9,30
2016-03-16 14:40:00,51.4,51.4,51.4,61,38.4069766475197,7,14,90,0,0,30.245,565,0,2.1,75,29
2016-03-16 14:45:00,51.6,51.6,51.6,60,38.1737008385773,7,15,22.5,0,0,30.249,452,0,1.7,73.5,28
2016-03-16 14:50:00,50.8,50.8,50.8,61,37.841308574905,7,14,0,0,0,30.248,178,0,1.2,72.3,31
2016-03-16 14:55:00,50.4,50.4,50.4,63,38.285525680702,4,9,22.5,0,0,30.249,151,0,1.2,72.1,32
2016-03-16 15:00:00,50.3,50.3,50.3,63,38.1908807453884,6,13,90,0,0,30.247,152,0.009,1.1,73,31
2016-03-16 15:05:00,50.2,50.2,50.2,64,38.4979652908704,3,11,90,0,0,30.246,170,0,1,73.6,31
2016-03-16 15:10:00,50.1,50.1,50.1,64,38.4031427531196,6,12,90,0,0,30.244,217,0,1.2,74.2,30
2016-03-16 15:15:00,50.6,50.6,50.6,64,38.877244288502,6,13,67.5,0,0,30.249,500,0,1.5,74.5,30
2016-03-16 15:20:00,51.2,51.2,51.2,63,39.0426437119831,6,14,90,0,0,30.25,319,0,1.1,74.5,30
2016-03-16 15:25:00,50.8,50.8,50.8,63,38.6640939074462,5,10,90,0,0,30.249,127,0,1.1,74.5,29
2016-03-16 15:30:00,50.3,50.3,50.3,64,38.5927867132644,5,13,45,0,0,30.253,162,0,1.1,74.2,29
2016-03-16 15:35:00,49.9,48.7547322285738,49.9,65,38.6092045148526,4,11,90,0,0,30.249,130,0,1,74,30
2016-03-16 15:40:00,49.5,47.6307136126988,49.5,66,38.6188940622866,5,11,67.5,0,0,30.247,78,0,1,74.3,30
2016-03-16 15:45:00,49.2,47.946119311815,49.2,66,38.3333695789442,4,13,90,0,0,30.243,178,0,1.1,74.5,30
2016-03-16 15:50:00,49.2,46.7147571181911,49.2,67,38.7173798307233,6,13,90,0,0,30.247,130,0,0.9,74.7,30
2016-03-16 15:55:00,49,47.0434342045737,49,67,38.5266881706772,5,9,90,0,0,30.25,110,0,0.9,74.7,30
2016-03-16 16:00:00,48.9,47.5995709189183,48.9,68,38.8098276910062,4,12,67.5,0,0,30.247,98,0.005,0.9,74.3,31
2016-03-16 16:05:00,48.7,46.6910665596986,48.7,69,38.9920762541142,5,12,112.5,0,0,30.246,218,0,0.9,74.2,31
2016-03-16 16:10:00,48.9,46.9259783229486,48.9,68,38.8098276910062,5,13,90,0,0,30.247,271,0,0.8,74.5,31
2016-03-16 16:15:00,48.8,46.2383851311836,48.8,67,38.3359924738649,6,12,90,0,0,30.24,254,0,0.9,74.9,30
2016-03-16 16:20:00,49,46.4765711246873,49,66,38.1430147020106,6,13,90,0,0,30.244,163,0,0.8,75,29
2016-03-16 16:25:00,48.8,46.8085224413236,48.8,67,38.3359924738649,5,11,67.5,0,0,30.243,164,0,0.7,74.9,30
2016-03-16 16:30:00,48.6,45.5021643204439,48.6,66,37.7622924162318,7,19,112.5,0,0,30.246,67,0,0.6,73.5,30
2016-03-16 16:35:00,48.3,45.6429201474242,48.3,67,37.8592355701403,6,15,45,0,0,30.247,179,0,0.7,73.5,30
2016-03-16 16:40:00,48.3,46.9064741331251,48.3,67,37.8592355701403,4,13,67.5,0,0,30.247,174,0,0.6,73.6,31
2016-03-16 16:45:00,48.3,46.9064741331251,48.3,68,38.2367254730736,4,10,67.5,0,0,30.245,97,0,0.5,73.8,31
2016-03-16 16:50:00,48.2,48.2,48.2,68,38.1412050260672,3,10,90,0,0,30.245,65,0,0.2,73.8,31
2016-03-16 16:55:00,48,48,48,68,37.9501612084764,2,11,90,0,0,30.247,72,0,0.1,74,30
2016-03-16 17:00:00,47.9,46.4444096092629,47.9,68,37.8546378378623,4,10,90,0,0,30.251,131,0.004,0,74.7,30
2016-03-16 17:05:00,47.9,46.4444096092629,47.9,68,37.8546378378623,4,13,315,0,0,30.245,111,0,0,74.9,29
2016-03-16 17:10:00,47.7,44.928362166913,47.7,68,37.6635881729218,6,12,90,0,0,30.247,79,0,0,74.7,30
2016-03-16 17:15:00,47.6,47.6,47.6,69,37.9395365667658,3,16,90,0,0,30.249,55,0,0,74.7,29
2016-03-16 17:20:00,47.3,45.7513128234696,47.3,69,37.6524605464256,4,10,90,0,0,30.248,51,0,0,74.7,29
2016-03-16 17:25:00,47.1,45.5202805615386,47.1,69,37.4610718320263,4,12,0,0,0,30.246,36,0,0,74.3,30
2016-03-16 17:30:00,46.8,44.4594048088231,46.8,69,37.1739817088918,5,11,67.5,0,0,30.251,27,0,0,73.8,28
2016-03-16 17:35:00,46.5,44.8271837757453,46.5,69,36.8868831235817,4,10,67.5,0,0,30.248,27,0,0,71.8,29
2016-03-16 17:40:00,46.1,44.3651192518831,46.1,70,36.8684007786507,4,11,90,0,0,30.251,21,0,0,70.1,30
2016-03-16 17:45:00,45.9,44.134086989952,45.9,70,36.676666850316,4,11,67.5,0,0,30.251,20,0,0,68.7,31
2016-03-16 17:50:00,45.7,45.7,45.7,70,36.4849292972303,3,10,90,0,0,30.253,17,0,0,67.4,32
2016-03-16 17:55:00,45.4,43.5565063351243,45.4,71,36.5559631871726,4,11,90,0,0,30.253,13,0,0,67,33
2016-03-16 18:00:00,45.2,42.5801107028226,45.2,71,36.3638981759999,5,11,90,0,0,30.25,11,0.002,0,66.9,33
2016-03-16 18:05:00,45.1,45.1,45.1,72,36.6216066056173,3,9,67.5,0,0,30.255,8,0,0,66.4,34
2016-03-16 18:10:00,45,45,45,73,36.874689723818,3,10,90,0,0,30.255,6,0,0,66.7,34
2016-03-16 18:15:00,45,42.3451989395726,45,73,36.874689723818,5,10,90,0,0,30.257,3,0,0,66.7,35
2016-03-16 18:20:00,44.7,42.7478934183655,44.7,74,36.9302576743863,4,9,90,0,0,30.256,0,0,0,66.7,34
2016-03-16 18:25:00,44.4,42.4013450254689,44.4,75,36.9808148461375,4,10,112.5,0,0,30.263,0,0,0,66.6,35
2016-03-16 18:30:00,44.1,41.2880960049473,44.1,75,36.6908374170073,5,9,90,0,0,30.264,0,0,0,66.6,35
2016-03-16 18:35:00,43.8,40.2837352935899,43.8,76,36.7360454668728,6,11,90,0,0,30.266,0,0,0,66.4,35
2016-03-16 18:40:00,43.5,39.9264563033343,43.5,77,36.7764805434766,6,9,112.5,0,0,30.27,0,0,0,66.4,35
2016-03-16 18:45:00,43.2,39.5691773130787,43.2,77,36.4855890404867,6,12,112.5,0,0,30.273,0,0,0,66.7,36
2016-03-16 18:50:00,43,39.996081307072,43,78,36.6180282193265,5,12,90,0,0,30.27,0,0,0,66.7,35
2016-03-16 18:55:00,42.8,40.5530869300202,42.8,78,36.4238015007552,4,10,112.5,0,0,30.273,0,0,0,66.4,35
2016-03-16 19:00:00,42.6,39.5262577805719,42.6,78,36.2295722077745,5,11,90,0,0,30.272,0,0.001,0,66.2,35
2016-03-16 19:05:00,42.4,38.0302400229407,42.4,79,36.3571675230708,7,13,90,0,0,30.271,0,0,0,66.1,35
2016-03-16 19:10:00,42.2,38.3782473455599,42.2,79,36.1626435705354,6,12,112.5,0,0,30.276,0,0,0,66.2,36
2016-03-16 19:15:00,42,38.8215224908217,42,79,35.9681171699772,5,10,112.5,0,0,30.273,0,0,0,66.4,36
2016-03-16 19:20:00,41.8,37.9018753585524,41.8,80,36.0909790736418,6,12,90,0,0,30.278,0,0,0,66.7,36
2016-03-16 19:25:00,41.6,39.1668933584336,41.6,80,35.8961616490221,4,9,90,0,0,30.277,0,0,0,66.6,36
2016-03-16 19:30:00,41.5,39.0513772274681,41.5,80,35.7987520657269,4,9,90,0,0,30.278,0,0,0,66.4,35
2016-03-16 19:35:00,41.3,41.3,41.3,80,35.6039311571397,3,11,135,0,0,30.277,0,0,0,66.1,35
2016-03-16 19:40:00,41.3,37.9993313194465,41.3,81,35.9171297565704,5,9,90,0,0,30.278,0,0,0,66.2,36
2016-03-16 19:45:00,41.2,38.7048288345715,41.2,81,35.8195769746471,4,7,112.5,0,0,30.28,0,0,0,66.2,36
2016-03-16 19:50:00,41.2,41.2,41.2,81,35.8195769746471,3,8,112.5,0,0,30.28,0,0,0,65.9,36
2016-03-16 19:55:00,41.1,41.1,41.1,81,35.7220236431765,3,7,90,0,0,30.281,0,0,0,65.8,36
2016-03-16 20:00:00,41.1,41.1,41.1,81,35.7220236431765,2,7,112.5,0,0,30.281,0,0.001,0,65.8,36